Flag for U.S.A. Weather past 2 weeks in Hayward, California, U.S.A.

Now
64 °F

Clear.


Feels Like: 64 °F
Forecast: 62 / 71 °F
Wind: 7 mph from West

Location: Hayward Air Terminal

Current Time: Aug 2, 2015 at 10:45:46 PM

Latest Report: Aug 2, 2015 at 9:54 PM


Visibility: 10 mi

Pressure: 29.95 "Hg

Humidity: 78%

Dew point: 57 °F

Location of HaywardLocation

Historic Weather in Hayward — Graph

°F

Hayward temperature yesterday

Maximum temperature yesterday: 74 °F (at 1:54 PM)
Minimum temperature yesterday: 63 °F (at 3:01 AM)
Average temperature yesterday: 68 °F

Past Weeks' High & Low Weather Summary

 TemperatureHumidityPressure
High90 °F (Jul 28, 2:54 PM)90% (Jul 21, 1:54 AM)30.16 "Hg (Jul 21, 1:54 AM)
Low58 °F (Jul 27, 6:54 AM)22% (Jul 28, 12:54 PM)29.85 "Hg (Jul 28, 3:54 PM)
Average67 °F71%29.99 "Hg
* Reported Jul 18 9:54 PM — Aug 2 9:54 PM, Hayward, Weather by CustomWeather, © 2015

Note: Actual official high and low records may vary slightly from our data, if they occured in-between our weather recording intervals... More about our weather records

Advertising

Hayward weather history for previous 24 hours

 ConditionsComfort  
Time TempWeatherWind HumidityBarometerVisibility
9:54 PM
Sun, Aug 2
64 °FClear.7 mph78%29.95 "Hg10 mi
8:54 PM65 °FSunny.7 mph76%29.94 "Hg10 mi
7:54 PM66 °FSunny.9 mph70%29.94 "Hg10 mi
6:54 PM68 °FSunny.14 mph65%29.93 "Hg10 mi
5:54 PM69 °FSunny.14 mph66%29.94 "Hg10 mi
4:54 PM71 °FSunny.12 mph61%29.94 "Hg10 mi
3:54 PM71 °FSunny.13 mph63%29.95 "Hg10 mi
2:54 PM71 °FPassing clouds.14 mph61%29.97 "Hg10 mi
1:54 PM70 °FSunny.12 mph64%29.99 "Hg10 mi
12:54 PM69 °FSunny.10 mph66%30.00 "Hg10 mi
11:54 AM67 °FPartly sunny.12 mph71%30.01 "Hg9 mi
11:03 AM64 °FOvercast.9 mph78%29.99 "Hg10 mi
10:54 AM65 °FOvercast.9 mph76%30.02 "Hg9 mi
9:54 AM64 °FOvercast.6 mph78%30.02 "Hg8 mi
8:54 AM63 °FOvercast.10 mph81%30.01 "Hg9 mi
7:54 AM63 °FOvercast.9 mph81%30.01 "Hg8 mi
6:54 AM63 °FOvercast.9 mph81%29.99 "Hg8 mi
5:54 AM63 °FOvercast.6 mph81%29.97 "Hg9 mi
4:54 AM63 °FOvercast.8 mph81%29.97 "Hg9 mi
3:54 AM63 °FOvercast.10 mph84%29.98 "Hg8 mi
2:54 AM64 °FOvercast.9 mph81%29.98 "Hg9 mi
1:54 AM63 °FOvercast.8 mph84%29.98 "Hg9 mi
12:54 AM63 °FPassing clouds.6 mph84%29.98 "Hg10 mi
12:01 AM64 °FPassing clouds.6 mph78%29.96 "Hg10 mi
10:54 PM
Sat, Aug 1
65 °FOvercast.7 mph81%30.01 "Hg10 mi
Weather by CustomWeather, © 2015

See weather overviewHow to use our weather pages